Piarco, Trinidad And Tobago

1:18 PM AST on August 28, 2016 (GMT -0400)
Piarco International

Weather History for TTPP - November, 2012

Change the Weather History Date:

Monday, November 12, 2012

  Actual Average Record
Temperature  
Mean Temperature 84 °F -  
Max Temperature 93 °F 86 °F 93 °F (2012)
Min Temperature 75 °F 73 °F 71 °F (2007)
Cooling Degree Days 19    
Growing Degree Days 34 (Base 50)    
Moisture  
Dew Point 74 °F    
Average Humidity 75    
Maximum Humidity 94    
Minimum Humidity 43    
Precipitation  
Precipitation 0.00 in 0.26 in - ()
Sea Level Pressure  
Sea Level Pressure 29.83 in    
Wind  
Wind Speed 3 mph ()    
Max Wind Speed 13 mph    
Max Gust Speed -    
Visibility 7.5 miles    
Events      
Averages and records for this station are not official NWS values.
T = Trace of Precipitation, MM = Missing Value Source: Averaged Metar Reports

Daily Weather History Graph

Daily Weather History Graph

Search for Another Location

Airport or City:

Trip Planner

Search our weather history database for the weather conditions in past years. The results will help you decide how hot, cold, wet, or windy it might be!

Date:

Astronomy

Nov. 12, 2012 Rise Set
Actual Time 5:59 AM AST 5:39 PM AST
Civil Twilight 5:37 AM AST 6:01 PM AST
Nautical Twilight 5:12 AM AST 6:26 PM AST
Astronomical Twilight 4:46 AM AST 6:52 PM AST
Moon 4:30 AM AST (11/12) 4:35 PM AST (11/12)
Length of Visible Light 12h 23m
Length of Day
11h 39m
Waning Crescent, 2% of the Moon is Illuminated
Nov 12
Waning Crescent
Nov 13
New
Nov 20
First Quarter
Nov 28
Full
Dec 6
Last Quarter

Hourly Weather History & Observations

Time (AST) Temp. Heat Index Dew Point Humidity Pressure Visibility Wind Dir Wind Speed Gust Speed Precip Events Conditions
12:00 AM 78.8 °F - 75.2 °F 89% 29.83 in 6.2 mi Calm Calm - N/A   Scattered Clouds
1:00 AM 77.0 °F - 75.2 °F 94% 29.80 in 6.2 mi Calm Calm - N/A   Partly Cloudy
2:00 AM 76 °F - 74 °F 90% 29.82 in 12 mi Calm Calm - -   Scattered Clouds
2:00 AM 77.0 °F - 75.2 °F 94% 29.80 in 6.2 mi Calm Calm - N/A   Partly Cloudy
3:00 AM 75.2 °F - 73.4 °F 94% 29.80 in 6.2 mi Calm Calm - N/A   Partly Cloudy
4:00 AM 77.0 °F - 75.2 °F 94% 29.80 in 6.2 mi Calm Calm - N/A   Mostly Cloudy
5:00 AM 76 °F - 74 °F 91% 29.83 in 9 mi Calm Calm - -   Smoke
5:00 AM 77.0 °F - 73.4 °F 89% 29.83 in 6.2 mi Calm Calm - N/A   Scattered Clouds
6:00 AM 75.2 °F - 71.6 °F 89% 29.83 in 6.2 mi Calm Calm - N/A   Scattered Clouds
7:00 AM 77.0 °F - 73.4 °F 89% 29.83 in 6.2 mi Calm Calm - N/A   Scattered Clouds
8:00 AM 82.4 °F 88.2 °F 73.4 °F 74% 29.86 in 6.2 mi Calm Calm - N/A   Scattered Clouds
9:00 AM 87.8 °F 97.6 °F 75.2 °F 66% 29.89 in 6.2 mi ESE 11.5 mph - N/A   Partly Cloudy
10:00 AM 89.6 °F 99.8 °F 75.2 °F 62% 29.89 in 6.2 mi ESE 9.2 mph - N/A   Partly Cloudy
11:00 AM 92 °F - 73 °F 46% 29.87 in 16 mi ESE 9.2 mph - -   Scattered Clouds
11:00 AM 93.2 °F 102.4 °F 73.4 °F 52% 29.86 in 6.2 mi ESE 9.2 mph - N/A   Mostly Cloudy
12:00 PM 93.2 °F 102.4 °F 73.4 °F 52% 29.86 in 6.2 mi ESE 11.5 mph - N/A   Mostly Cloudy
1:00 PM 91.4 °F 100.1 °F 73.4 °F 55% 29.80 in 6.2 mi East 9.2 mph - N/A   Mostly Cloudy
2:00 PM 93 °F - 73 °F 43% 29.80 in 12 mi ESE 9.2 mph - -   Partly Cloudy
2:00 PM 93.2 °F 102.4 °F 73.4 °F 52% 29.80 in 6.2 mi ESE 9.2 mph - N/A   Mostly Cloudy
3:00 PM 87.8 °F 97.6 °F 75.2 °F 66% 29.77 in 6.2 mi SE 10.4 mph - N/A   Mostly Cloudy
4:00 PM 87.8 °F 97.6 °F 75.2 °F 66% 29.77 in 6.2 mi ESE 12.7 mph - N/A   Mostly Cloudy
5:00 PM 86 °F - 75 °F 64% 29.79 in 11 mi East 11.5 mph - -   Scattered Clouds
5:00 PM 86.0 °F 95.1 °F 75.2 °F 70% 29.77 in 6.2 mi East 11.5 mph - N/A   Mostly Cloudy
6:00 PM 84.2 °F 92.3 °F 75.2 °F 74% 29.80 in 6.2 mi ESE 5.8 mph - N/A   Mostly Cloudy
7:00 PM 82.4 °F 89.5 °F 75.2 °F 79% 29.80 in 6.2 mi Calm Calm - N/A   Mostly Cloudy
8:00 PM 82 °F - 74 °F 72% 29.85 in 11 mi NE 4.6 mph - -   Scattered Clouds
8:00 PM 82.4 °F 89.5 °F 75.2 °F 79% 29.83 in 6.2 mi Calm Calm - N/A   Mostly Cloudy
9:00 PM 80.6 °F 86.2 °F 75.2 °F 84% 29.86 in 6.2 mi Calm Calm - N/A   Mostly Cloudy
10:00 PM 78.8 °F - 75.2 °F 89% 29.86 in 6.2 mi ESE 9.2 mph - N/A   Mostly Cloudy
11:00 PM 79 °F - 74 °F 81% 29.87 in 14 mi ESE 5.8 mph - -   Scattered Clouds
11:00 PM 78.8 °F - 75.2 °F 89% 29.86 in 6.2 mi ESE 5.8 mph - N/A   Mostly Cloudy